Meteo pe oră la Ploieşti

Astăzi, 17 Aprilie, Sâmbătă

Timp Temperatura Precipitaţii Vânt Presiune Umiditate
00:00 +5°C° 0 mm 2 m/s 750 mmHg 69%
01:00 +4°C° 0 mm 2 m/s 749 mmHg 69%
02:00 +4°C° 0 mm 2 m/s 749 mmHg 69%
03:00 +4°C° 0 mm 2 m/s 749 mmHg 69%
04:00 +5°C° 0 mm 1 m/s 749 mmHg 69%
05:00 +4°C° 0 mm 1 m/s 749 mmHg 69%
06:00 +6°C° 0 mm 1 m/s 749 mmHg 65%
07:00 +7°C° 0 mm 1 m/s 750 mmHg 61%
08:00 +7°C° 0 mm 0 m/s 750 mmHg 57%
09:00 +10°C° 0 mm 1 m/s 749 mmHg 53%
10:00 +11°C° 0 mm 1 m/s 749 mmHg 48%
11:00 +13°C° 0 mm 2 m/s 749 mmHg 43%
12:00 +13°C° 0 mm 2 m/s 749 mmHg 42%
13:00 +14°C° 0 mm 2 m/s 748 mmHg 41%
14:00 +14°C° 0 mm 2 m/s 748 mmHg 40%
15:00 +14°C° 0 mm 2 m/s 748 mmHg 44%
16:00 +14°C° 0 mm 2 m/s 747 mmHg 47%
17:00 +14°C° 0 mm 2 m/s 747 mmHg 50%
18:00 +13°C° 0 mm 1 m/s 747 mmHg 56%
19:00 +12°C° 0 mm 1 m/s 747 mmHg 62%
20:00 +11°C° 0 mm 1 m/s 747 mmHg 68%
21:00 +9°C° 0.2 mm 2 m/s 748 mmHg 72%
22:00 +9°C° 0.2 mm 2 m/s 748 mmHg 77%
23:00 +9°C° 0.2 mm 2 m/s 748 mmHg 81%

Mâine, 18 Aprilie, Duminică

Timp Temperatura Precipitaţii Vânt Presiune Umiditate
00:00 +8°C° 0.1 mm 2 m/s 748 mmHg 83%
01:00 +8°C° 0.1 mm 2 m/s 748 mmHg 84%
02:00 +8°C° 0.1 mm 2 m/s 748 mmHg 85%
03:00 +8°C° 0 mm 2 m/s 747 mmHg 84%
04:00 +8°C° 0 mm 3 m/s 747 mmHg 82%
05:00 +8°C° 0 mm 3 m/s 747 mmHg 80%
06:00 +8°C° 0 mm 3 m/s 747 mmHg 79%
07:00 +8°C° 0 mm 3 m/s 747 mmHg 78%
08:00 +7°C° 0 mm 4 m/s 747 mmHg 77%
09:00 +7°C° 0 mm 4 m/s 747 mmHg 72%
10:00 +8°C° 0 mm 5 m/s 747 mmHg 66%
11:00 +9°C° 0 mm 5 m/s 747 mmHg 60%
12:00 +8°C° 0.1 mm 4 m/s 747 mmHg 63%
13:00 +9°C° 0.1 mm 3 m/s 747 mmHg 66%
14:00 +9°C° 0.1 mm 3 m/s 747 mmHg 69%
15:00 +8°C° 0.4 mm 3 m/s 747 mmHg 74%
16:00 +8°C° 0.4 mm 3 m/s 747 mmHg 80%
17:00 +7°C° 0.4 mm 3 m/s 747 mmHg 86%
18:00 +7°C° 0 mm 2 m/s 747 mmHg 86%
19:00 +7°C° 0 mm 2 m/s 747 mmHg 86%
20:00 +7°C° 0 mm 2 m/s 747 mmHg 87%
21:00 +8°C° 0 mm 1 m/s 748 mmHg 86%
22:00 +8°C° 0 mm 1 m/s 748 mmHg 86%
23:00 +7°C° 0 mm 0 m/s 748 mmHg 86%

Poimâine, 19 Aprilie, Luni

Timp Temperatura Precipitaţii Vânt Presiune Umiditate
00:00 +7°C° 0 mm 0 m/s 748 mmHg 86%
01:00 +7°C° 0 mm 0 m/s 747 mmHg 87%
02:00 +7°C° 0 mm 0 m/s 747 mmHg 87%
03:00 +7°C° 0 mm 0 m/s 747 mmHg 87%
04:00 +7°C° 0 mm 0 m/s 747 mmHg 88%
05:00 +6°C° 0 mm 0 m/s 746 mmHg 88%
06:00 +8°C° 0 mm 1 m/s 746 mmHg 84%
07:00 +9°C° 0 mm 1 m/s 746 mmHg 80%
08:00 +10°C° 0 mm 1 m/s 746 mmHg 76%
09:00 +10°C° 0 mm 1 m/s 746 mmHg 75%
10:00 +10°C° 0 mm 2 m/s 745 mmHg 74%
11:00 +10°C° 0 mm 2 m/s 745 mmHg 73%
12:00 +12°C° 0.1 mm 1 m/s 745 mmHg 73%
13:00 +12°C° 0.1 mm 1 m/s 744 mmHg 72%
14:00 +12°C° 0.1 mm 1 m/s 744 mmHg 72%
15:00 +11°C° 1 mm 1 m/s 744 mmHg 78%
16:00 +11°C° 1 mm 1 m/s 743 mmHg 85%
17:00 +10°C° 1 mm 1 m/s 743 mmHg 91%
18:00 +10°C° 1 mm 1 m/s 742 mmHg 92%
19:00 +10°C° 1 mm 1 m/s 742 mmHg 92%
20:00 +10°C° 1 mm 1 m/s 742 mmHg 93%
21:00 +10°C° 0.7 mm 1 m/s 742 mmHg 92%
22:00 +8°C° 0.7 mm 2 m/s 741 mmHg 92%
23:00 +8°C° 0.7 mm 2 m/s 741 mmHg 91%

20 Aprilie, Marţi

Timp Temperatura Precipitaţii Vânt Presiune Umiditate
00:00 +8°C° 0.2 mm 2 m/s 741 mmHg 91%
01:00 +8°C° 0.2 mm 2 m/s 740 mmHg 91%
02:00 +8°C° 0.2 mm 2 m/s 740 mmHg 91%
03:00 +8°C° 0 mm 2 m/s 740 mmHg 91%
04:00 +7°C° 0 mm 2 m/s 740 mmHg 91%
05:00 +7°C° 0 mm 2 m/s 740 mmHg 91%
06:00 +8°C° 0 mm 2 m/s 740 mmHg 86%
07:00 +9°C° 0 mm 3 m/s 740 mmHg 82%
08:00 +10°C° 0 mm 3 m/s 740 mmHg 78%
09:00 +11°C° 0 mm 3 m/s 740 mmHg 72%
10:00 +13°C° 0 mm 2 m/s 741 mmHg 67%
11:00 +14°C° 0 mm 2 m/s 741 mmHg 61%
12:00 +14°C° 0.5 mm 2 m/s 741 mmHg 60%
13:00 +14°C° 0.5 mm 3 m/s 741 mmHg 58%
14:00 +16°C° 0.5 mm 3 m/s 741 mmHg 57%
15:00 +14°C° 0.6 mm 3 m/s 741 mmHg 61%
16:00 +13°C° 0.6 mm 3 m/s 742 mmHg 65%
17:00 +13°C° 0.6 mm 3 m/s 742 mmHg 69%
18:00 +12°C° 0.3 mm 3 m/s 742 mmHg 74%
19:00 +10°C° 0.3 mm 3 m/s 743 mmHg 78%
20:00 +9°C° 0.3 mm 2 m/s 743 mmHg 83%
21:00 +9°C° 0.1 mm 2 m/s 744 mmHg 84%
22:00 +10°C° 0.1 mm 1 m/s 744 mmHg 86%
23:00 +10°C° 0.1 mm 1 m/s 744 mmHg 87%

21 Aprilie, Miercuri

Timp Temperatura Precipitaţii Vânt Presiune Umiditate
00:00 +9°C° 0 mm 1 m/s 745 mmHg 87%
01:00 +9°C° 0 mm 1 m/s 745 mmHg 88%
02:00 +9°C° 0 mm 1 m/s 745 mmHg 88%
03:00 +8°C° 0 mm 1 m/s 745 mmHg 88%
04:00 +8°C° 0 mm 1 m/s 745 mmHg 88%
05:00 +8°C° 0 mm 1 m/s 745 mmHg 87%
06:00 +9°C° 0 mm 1 m/s 746 mmHg 82%
07:00 +10°C° 0 mm 1 m/s 746 mmHg 77%
08:00 +11°C° 0 mm 1 m/s 747 mmHg 72%
09:00 +12°C° 0 mm 1 m/s 747 mmHg 67%
10:00 +13°C° 0 mm 1 m/s 747 mmHg 62%
11:00 +15°C° 0 mm 1 m/s 747 mmHg 57%
12:00 +15°C° 0.4 mm 2 m/s 747 mmHg 56%
13:00 +16°C° 0.4 mm 2 m/s 747 mmHg 56%
14:00 +16°C° 0.4 mm 2 m/s 747 mmHg 55%
15:00 +16°C° 0.3 mm 2 m/s 747 mmHg 55%
16:00 +16°C° 0.3 mm 2 m/s 747 mmHg 55%
17:00 +16°C° 0.3 mm 2 m/s 747 mmHg 55%
18:00 +14°C° 0.5 mm 2 m/s 748 mmHg 62%
19:00 +13°C° 0.5 mm 2 m/s 748 mmHg 70%
20:00 +10°C° 0.5 mm 2 m/s 749 mmHg 77%
21:00 +10°C° 0.1 mm 2 m/s 749 mmHg 79%
22:00 +9°C° 0.1 mm 2 m/s 749 mmHg 80%
23:00 +8°C° 0.1 mm 2 m/s 749 mmHg 82%

22 Aprilie, Joi

Timp Temperatura Precipitaţii Vânt Presiune Umiditate
00:00 +8°C° 0 mm 2 m/s 750 mmHg 82%
01:00 +8°C° 0 mm 2 m/s 750 mmHg 82%
02:00 +7°C° 0 mm 2 m/s 750 mmHg 82%
03:00 +7°C° 0 mm 2 m/s 750 mmHg 82%
04:00 +7°C° 0 mm 2 m/s 750 mmHg 81%
05:00 +7°C° 0 mm 2 m/s 750 mmHg 81%
06:00 +9°C° 0 mm 1 m/s 750 mmHg 76%
07:00 +11°C° 0 mm 1 m/s 751 mmHg 70%
08:00 +12°C° 0 mm 1 m/s 751 mmHg 65%
09:00 +14°C° 0 mm 1 m/s 751 mmHg 59%
10:00 +15°C° 0 mm 1 m/s 751 mmHg 54%
11:00 +17°C° 0 mm 2 m/s 751 mmHg 49%
12:00 +18°C° 0 mm 2 m/s 750 mmHg 47%
13:00 +18°C° 0 mm 2 m/s 750 mmHg 45%
14:00 +19°C° 0 mm 3 m/s 750 mmHg 43%
15:00 +19°C° 0 mm 3 m/s 750 mmHg 44%
16:00 +19°C° 0 mm 3 m/s 749 mmHg 45%
17:00 +18°C° 0 mm 3 m/s 749 mmHg 46%
18:00 +17°C° 0 mm 2 m/s 749 mmHg 52%
19:00 +15°C° 0 mm 2 m/s 749 mmHg 58%
20:00 +13°C° 0 mm 1 m/s 750 mmHg 64%
21:00 +13°C° 0 mm 1 m/s 750 mmHg 66%
22:00 +12°C° 0 mm 1 m/s 750 mmHg 68%
23:00 +12°C° 0 mm 1 m/s 750 mmHg 70%
Arată mai mult

Formular de consimțământ

Meteoprog și furnizorii noștri de servicii pot stoca și accesa date personale, precum cookies, identificatori de dispozitiv sau alte tehnologii similare pe dispozitivul dumneavoastră și procesa astfel de date pentru a personaliza conținutul și reclamele, dar și pentru a oferi caracteristici de social media și pentru a analiza traficul.

  • Stocarea și/sau accesarea informațiilor pe dispozitivul dumneavoastră

    Cookies, identificatori de dispozitiv sau alte informații pot fi stocate sau accesate pe dispozitiv în scopurile indicate mai sus.

  • Reclame și conținut personalizat, evaluarea reclamelor și a conținutului, informații despre audiențe și dezvoltarea produselor

    Reclamele și conținutul pot fi personalizate pe baza unui profil. Pot fi adăugate date suplimentare pentru a personaliza mai bine reclamele și conținutul. Performanța reclamelor și conținutului poate fi măsurată. Pot fi obținute informații despre utilizatorii care au văzut reclamele și conținutul. Aceste date pot fi utilizate pentru a dezvolta sau îmbunătăți experiența utilizatorilor, sistemele și software-ul.

Dând clic pe ‘Sunt de acord’, permiteți utilizarea cookie-urilor menționate, a identificatorilor de dispozitiv, balizelor web sau altor tehnologii similare. Setările pot fi modificate din browser-ul dispozitivului dumneavoastră.

În anumite scopuri, interesele legitime pot prima asupra consimțământului. Puteți citi mai multe informații în acest sens în Politica privind Confidențialitatea Datelor și Cookie.